World > North America > United States > South Dakota > Buffalo Gap

Buffalo Gap, SD Hourly Weather Conditions

Feedback E-mail the Weather

Quick WX

Buffalo Gap, SD Weather Maps

°F °C°F °C
Buffalo Gap Weather Map
UTC Time: 1/28/2023, 20:24
Your Time:

Buffalo Gap, SD Regional Weather

Expires:202301282100;;399467
ASUS43 KFSD 282010
RWRSD 

WEATHER ROUNDUP FOR SOUTH DAKOTA
NATIONAL WEATHER SERVICE SIOUX FALLS SD
200 PM CST SAT JAN 28 2023

NOTE: "FAIR" INDICATES FEW OR NO CLOUDS BELOW 12,000 FEET WITH NO
SIGNIFICANT WEATHER AND/OR OBSTRUCTIONS TO VISIBILITY.



SDZ012>016-024>037-041>051-057-063-072>074-282100-
SOUTHWEST AND SOUTH CENTRAL SOUTH DAKOTA
  
CITY           SKY/WX    TMP DP  RH WIND       PRES   REMARKS
RAPID CTY ARPT LGT SNOW   7   3  84 N15       30.14S VSB 3/4 WCI -10  
PIERRE         MIX PCPN   4  -4  69 NE12      30.29S WCI -12          
CUSTER         LGT SNOW   7   1  76 NE8       29.89F WCI  -6          
ELLSWORTH AFB  BLWGSNOW   7   0  72 NE13      30.11F VSB 1   WCI  -9  
PHILIP         CLOUDY     7   1  76 NE15      30.24S WCI -10          
PINE RIDGE     LGT SNOW  11   6  81 MISG      30.08R                  
SPEARFISH      CLOUDY     3   0  85 NE12      30.10S HAZE    WCI -13  
WINNER         CLOUDY     3  -3  76 N16       30.23R HAZE    WCI -16  
$$
 

SKY/WX - Weather  TMP - Temperature  DP - Dew Point  RH - Humidity
WIND - Wind Direction/Speed PRES - Barometric Pressure VSB - Visibility
WCI - Wind Chill Index E13G22 Wind - East Wind 13 mph/Gusts of 22 mph

Trending Headlines

Trending Entertainment Headlines

Buffalo Gap Radar Loop

Use the map search tool if you want to place a location marker on the radar map...

Buffalo Gap Quick Facts

National Two Day Weather Forecast


E-mail the Buffalo Gap Weather Forecast

Voice your opinion or tell us about page issues...